Duluth, MN

12:01 AM CST on February 18, 2018 (GMT -0600)
Duluth International

Weather History for KDLH - April, 2013

Change the Weather History Date:

Monday, April 15, 2013

  Actual Average Record
Temperature  
Mean Temperature 35 °F 39 °F  
Max Temperature 37 °F 49 °F 79 °F (1913)
Min Temperature 32 °F 30 °F 11 °F (1935)
Degree Days  
Heating Degree Days 30 26  
Month to date heating degree days 521 434  
Since 1 July heating degree days 8362 8511  
Cooling Degree Days 0 0  
Month to date cooling degree days 0 0  
Year to date cooling degree days 0 0  
Moisture  
Dew Point 30 °F    
Average Humidity 82    
Maximum Humidity 89    
Minimum Humidity 75    
Precipitation  
Precipitation 0.07 in 0.08 in 2.02 in (2012)
Month to date precipitation 2.41 1.07  
Year to date precipitation 7.00 4.33  
Snow  
Snow T in 0.30 in 9.70 in (1961)
Month to date snowfall 23.9 4.5  
Since 1 July snowfall 102.5 83.3  
Snow Depth 17.00 in    
Sea Level Pressure  
Sea Level Pressure 29.59 in    
Wind  
Wind Speed 15 mph (SSE)    
Max Wind Speed 35 mph    
Max Gust Speed 44 mph    
Visibility 5 miles    
Events Fog , Rain , Snow    
T = Trace of Precipitation, MM = Missing Value Source: NWS Daily Summary

Daily Weather History Graph

Daily Weather History Graph

Search for Another Location

Airport or City:

Trip Planner

Search our weather history database for the weather conditions in past years. The results will help you decide how hot, cold, wet, or windy it might be!

Date:

Astronomy

Apr. 15, 2013 Rise Set
Actual Time 6:20 AM CDT 7:57 PM CDT
Civil Twilight 5:48 AM CDT 8:29 PM CDT
Nautical Twilight 5:10 AM CDT 9:08 PM CDT
Astronomical Twilight 4:28 AM CDT 9:50 PM CDT
Moon 9:36 AM CDT (4/15) 12:20 AM CDT (4/15)
Length of Visible Light 14h 40m
Length of Day
13h 36m
Waxing Crescent, 25% of the Moon is Illuminated
Apr 15
Waxing Crescent
Apr 18
First Quarter
Apr 25
Full
May 2
Last Quarter
May 9
New

Hourly Weather History & Observations

Time (CDT) Temp. Windchill Dew Point Humidity Pressure Visibility Wind Dir Wind Speed Gust Speed Precip Events Conditions
12:13 AM 32.0 °F 17.4 °F 28.4 °F 87% 29.58 in 1.0 mi East 31.1 mph 40.3 mph 0.00 in Snow Light Snow
12:32 AM 32.0 °F 16.7 °F 28.4 °F 87% 29.57 in 0.8 mi East 34.5 mph 47.2 mph 0.01 in Snow Light Snow
12:55 AM 32.0 °F 17.2 °F 28.9 °F 88% 29.60 in 0.8 mi East 32.2 mph 39.1 mph 0.01 in Snow Light Snow
1:15 AM 32.0 °F 17.2 °F 28.4 °F 87% 29.55 in 1.0 mi East 32.2 mph 43.7 mph 0.01 in Snow Light Snow
1:38 AM 33.8 °F 20.8 °F 30.2 °F 87% 29.54 in 1.8 mi East 26.5 mph 40.3 mph 0.01 in Rain Light Freezing Rain
1:55 AM 33.1 °F 19.3 °F 30.0 °F 89% 29.58 in 1.8 mi East 28.8 mph 36.8 mph 0.02 in Rain Light Freezing Rain
2:08 AM 33.8 °F 20.8 °F 30.2 °F 87% 29.52 in 1.8 mi East 26.5 mph 39.1 mph 0.00 in Rain Light Freezing Rain
2:20 AM 33.8 °F 21.6 °F 30.2 °F 87% 29.51 in 2.0 mi East 23.0 mph 38.0 mph 0.00 in Rain Light Freezing Rain
2:55 AM 33.1 °F 20.3 °F 30.0 °F 89% 29.55 in 1.8 mi East 24.2 mph 36.8 mph 0.00 in Rain Light Freezing Rain
3:04 AM 33.8 °F 20.8 °F 30.2 °F 87% 29.50 in 2.0 mi East 26.5 mph 33.4 mph 0.01 in Rain Light Freezing Rain
3:55 AM 33.1 °F 21.2 °F 30.9 °F 92% 29.56 in 2.5 mi East 20.7 mph 32.2 mph 0.02 in Rain Light Freezing Rain
4:24 AM 33.8 °F 23.2 °F 30.2 °F 87% 29.51 in 1.0 mi ESE 17.3 mph 28.8 mph 0.01 in   Light Freezing Drizzle
4:31 AM 33.8 °F 22.5 °F 30.2 °F 87% 29.50 in 0.2 mi ESE 19.6 mph 24.2 mph 0.01 in Fog Light Freezing Drizzle
4:43 AM 33.8 °F 23.2 °F 30.2 °F 87% 29.49 in 0.2 mi East 17.3 mph 23.0 mph 0.01 in Fog Light Freezing Drizzle
4:55 AM 33.1 °F 23.0 °F 30.9 °F 92% 29.55 in 0.2 mi East 15.0 mph 24.2 mph 0.01 in Fog Fog
4:59 AM 33.8 °F 24.3 °F 30.2 °F 87% 29.50 in 0.5 mi East 13.8 mph - N/A Fog Fog
5:07 AM 33.8 °F 24.8 °F 30.2 °F 87% 29.50 in 0.2 mi East 12.7 mph 20.7 mph N/A Fog Fog
5:23 AM 33.8 °F 23.5 °F 30.2 °F 87% 29.49 in 0.5 mi ESE 16.1 mph 23.0 mph N/A Fog Fog
5:32 AM 33.8 °F 23.9 °F 30.2 °F 87% 29.48 in 1.8 mi ESE 15.0 mph - N/A   Overcast
5:34 AM 33.8 °F 24.3 °F 30.2 °F 87% 29.49 in 3.0 mi ESE 13.8 mph - N/A   Overcast
5:41 AM 33.8 °F 24.3 °F 30.2 °F 87% 29.48 in 0.5 mi East 13.8 mph - N/A Fog Fog
5:55 AM 33.1 °F 24.9 °F 30.9 °F 92% 29.54 in 0.5 mi SE 10.4 mph - N/A Fog Fog
6:11 AM 33.8 °F 24.8 °F 30.2 °F 87% 29.48 in 2.0 mi SSE 12.7 mph 23.0 mph N/A   Overcast
6:14 AM 33.8 °F 23.9 °F 30.2 °F 87% 29.48 in 8.0 mi SE 15.0 mph 23.0 mph N/A   Overcast
6:32 AM 33.8 °F 25.8 °F 30.2 °F 87% 29.48 in 5.0 mi SE 10.4 mph - N/A   Overcast
6:53 AM 33.8 °F 25.8 °F 30.2 °F 87% 29.48 in 6.0 mi SE 10.4 mph - N/A   Overcast
6:55 AM 34.0 °F 24.6 °F 30.9 °F 89% 29.54 in 6.0 mi ESE 13.8 mph - N/A   Overcast
6:59 AM 33.8 °F 24.8 °F 30.2 °F 87% 29.48 in 9.0 mi SE 12.7 mph - N/A   Overcast
7:09 AM 33.8 °F 27.0 °F 30.2 °F 87% 29.49 in 7.0 mi South 8.1 mph 21.9 mph N/A   Overcast
7:55 AM 34.0 °F 25.0 °F 30.0 °F 85% 29.55 in 9.0 mi SSE 12.7 mph - 0.00 in Snow Light Snow
8:02 AM 33.8 °F 24.8 °F 30.2 °F 87% 29.49 in 9.0 mi South 12.7 mph - 0.00 in Snow Light Snow
8:37 AM 33.8 °F 22.8 °F 28.4 °F 81% 29.49 in 9.0 mi South 18.4 mph 24.2 mph 0.00 in Snow Light Snow
8:55 AM 33.1 °F 23.4 °F 27.0 °F 78% 29.55 in 9.0 mi South 13.8 mph 25.3 mph 0.00 in Snow Light Snow
9:11 AM 33.8 °F 24.8 °F 28.4 °F 81% 29.50 in 9.0 mi South 12.7 mph - 0.00 in Snow Light Snow
9:50 AM 33.8 °F 23.5 °F 26.6 °F 75% 29.50 in 10.0 mi SSW 16.1 mph 21.9 mph 0.00 in   Overcast
9:55 AM 33.1 °F 23.0 °F 27.0 °F 78% 29.55 in 10.0 mi SSW 15.0 mph - 0.00 in   Overcast
10:13 AM 33.8 °F 25.8 °F 26.6 °F 75% 29.51 in 10.0 mi SSW 10.4 mph - N/A   Overcast
10:33 AM 33.8 °F 25.3 °F 26.6 °F 75% 29.51 in 10.0 mi South 11.5 mph 20.7 mph N/A   Overcast
10:55 AM 33.1 °F 23.0 °F 27.0 °F 78% 29.57 in 10.0 mi South 15.0 mph - N/A   Overcast
11:55 AM 33.1 °F 23.4 °F 28.0 °F 82% 29.60 in 7.0 mi SSW 13.8 mph - 0.00 in   Light Drizzle
12:55 PM 34.0 °F 24.6 °F 28.0 °F 79% 29.63 in 7.0 mi South 13.8 mph - 0.00 in Snow Light Snow
1:44 PM 33.8 °F 25.3 °F 28.4 °F 81% 29.57 in 9.0 mi South 11.5 mph 17.3 mph 0.00 in Snow Light Snow
1:55 PM 34.0 °F 25.5 °F 28.9 °F 82% 29.62 in 8.0 mi South 11.5 mph - 0.00 in Snow Light Snow
2:55 PM 35.1 °F 24.8 °F 28.9 °F 78% 29.66 in 5.0 mi SSW 17.3 mph - 0.00 in Snow Light Snow
3:44 PM 35.6 °F 28.0 °F 30.2 °F 81% 29.62 in 2.0 mi SW 10.4 mph - 0.01 in Snow Light Snow
3:55 PM 35.1 °F 27.4 °F 30.9 °F 85% 29.68 in 3.0 mi SW 10.4 mph - 0.01 in Snow Light Snow
4:29 PM 35.6 °F 27.1 °F 30.2 °F 81% 29.63 in 7.0 mi SW 12.7 mph - 0.01 in Snow Light Snow
4:43 PM 35.6 °F 25.9 °F 30.2 °F 81% 29.63 in 9.0 mi SW 16.1 mph 21.9 mph 0.01 in Snow Light Snow
4:55 PM 36.0 °F 27.1 °F 30.0 °F 79% 29.69 in 9.0 mi SW 13.8 mph - 0.01 in Snow Light Snow
5:23 PM 35.6 °F 25.9 °F 30.2 °F 81% 29.65 in 9.0 mi SW 16.1 mph - 0.00 in Snow Light Snow
5:55 PM 36.0 °F 26.7 °F 30.0 °F 79% 29.72 in 9.0 mi SW 15.0 mph - 0.00 in   Overcast
6:55 PM 37.0 °F 27.7 °F 30.0 °F 76% 29.73 in 10.0 mi WSW 16.1 mph - N/A   Overcast
7:55 PM 36.0 °F 25.6 °F 30.0 °F 79% 29.78 in 10.0 mi WSW 18.4 mph - N/A   Overcast
8:55 PM 36.0 °F 26.0 °F 30.0 °F 79% 29.81 in 10.0 mi WSW 17.3 mph - N/A   Overcast
9:41 PM 35.6 °F 26.6 °F 30.2 °F 81% 29.77 in 9.0 mi WSW 13.8 mph - 0.00 in Snow Light Snow
9:55 PM 35.1 °F 25.2 °F 30.9 °F 85% 29.83 in 9.0 mi WSW 16.1 mph - 0.00 in Snow Light Snow
10:53 PM 35.6 °F 25.9 °F 30.2 °F 81% 29.79 in 1.8 mi West 16.1 mph - 0.00 in Snow Light Snow
10:55 PM 35.1 °F 25.5 °F 30.9 °F 85% 29.85 in 1.8 mi West 15.0 mph - 0.00 in Snow Light Snow
11:02 PM 35.6 °F 26.6 °F 30.2 °F 81% 29.79 in 4.0 mi West 13.8 mph - 0.00 in Snow Light Snow
11:41 PM 35.6 °F 26.2 °F 30.2 °F 81% 29.81 in 10.0 mi West 15.0 mph - 0.00 in   Overcast
11:55 PM 35.1 °F 26.4 °F 30.9 °F 85% 29.87 in 10.0 mi West 12.7 mph - 0.00 in   Overcast